Location: Knowlton
(51.2333°N, 1.2667°E)
Time: 06:51:41
(UTC+00:00)

ISS - Pass Details

Date: 01 October 2021
Orbit: 417 x 423 km, 51.6° (Epoch: 24 October)

Event Time Altitude Azimuth Distance (km) Brightness Sun altitude
Rises 18:14:00 0° 282° (WNW) 2,365 2.3 -7.3°
Reaches altitude 10° 18:16:06 10° 280° (W) 1,500 0.8 -7.7°
Maximum altitude 18:19:27 70° 197° (SSW) 450 -3.6 -8.2°
Enters shadow 18:22:40 11° 114° (ESE) 1,442 -1.6 -8.7°
